GW0484 Weather Reports


Display with metric or nautical units.
time (UTC)temp
F
wind
direction
speed
MPH
gust
MPH
rain 1hr
in
rain 24hr
in
rain mn
in
humidity
%
barometer
mb
20260903121503 44 137 3.0 3.0 0.00 0.00 0.00 89 1003.3
20260903120959 42 136 1.0 1.0 0.00 0.00 0.00 92 1003.0
20260903120457 43 145 1.0 1.0 0.00 0.00 0.00 90 1003.2
20260903115956 43 116 0.0 1.0 0.00 0.00 0.00 90 1002.9
20260903115456 43 133 0.0 0.0 0.00 0.00 0.00 89 1003.2
20260903114956 43 107 1.0 1.0 0.00 0.00 0.00 90 1003.1
20260903114451 43 134 1.0 1.0 0.00 0.00 0.00 91 1003.1
20260903113947 42 148 2.0 2.0 0.00 0.00 0.00 92 1003.0
20260903113442 42 134 0.0 0.0 0.00 0.00 0.00 92 1003.1
20260903112938 42 132 0.0 0.0 0.00 0.00 0.00 91 1003.0
20260903112434 42 31 3.0 5.0 0.00 0.00 0.00 91 1003.0
20260903111932 42 131 0.0 0.0 0.00 0.00 0.00 91 1003.1
20260903111427 42 134 0.0 0.0 0.00 0.00 0.00 91 1002.9
20260903110923 42 191 2.0 2.0 0.00 0.00 0.00 91 1002.8
20260903110419 42 121 1.0 1.0 0.00 0.00 0.00 91 1003.1
20260903105914 42 123 0.0 0.0 0.00 0.00 0.00 90 1003.0
20260903105409 43 127 0.0 0.0 0.00 0.00 0.00 90 1003.2
20260903104908 43 123 0.0 0.0 0.00 0.00 0.00 90 1003.1
20260903104403 44 122 0.0 0.0 0.00 0.00 0.00 90 1002.9
20260903103900 44 126 0.0 0.0 0.00 0.00 0.00 91 1002.9
20260903103355 43 112 1.0 1.0 0.00 0.00 0.00 91 1002.9
20260903102850 42 121 0.0 0.0 0.00 0.00 0.00 90 1003.0
20260903102344 43 125 0.0 0.0 0.00 0.00 0.00 89 1002.9
20260903101839 43 128 0.0 0.0 0.00 0.00 0.00 89 1002.8
20260903101334 43 127 0.0 0.0 0.00 0.00 0.00 88 1002.9
20260903100830 44 121 0.0 0.0 0.00 0.00 0.00 86 1003.1
20260903100330 46 117 0.0 1.0 0.00 0.00 0.00 85 1003.0
20260903095827 46 133 0.0 0.0 0.00 0.00 0.00 85 1002.8
20260903095321 45 144 1.0 1.0 0.00 0.00 0.00 86 1002.7
20260903094816 44 139 0.0 1.0 0.00 0.00 0.00 89 1002.7
20260903094311 44 125 0.0 0.0 0.00 0.00 0.00 89 1002.9
20260903093806 45 60 2.0 2.0 0.00 0.00 0.00 88 1002.8
20260903093256 44 99 1.0 2.0 0.00 0.00 0.00 90 1002.5
20260903092755 44 119 0.0 0.0 0.00 0.00 0.00 89 1002.5
20260903092245 44 123 0.0 0.0 0.00 0.00 0.00 88 1002.3
20260903091744 45 115 0.0 1.0 0.00 0.00 0.00 87 1002.4
20260903091238 46 138 0.0 0.0 0.00 0.00 0.00 86 1002.4
20260903090734 46 144 1.0 1.0 0.00 0.00 0.00 86 1002.5
20260903090233 46 132 0.0 0.0 0.00 0.00 0.00 87 1002.5
20260903085732 46 131 0.0 0.0 0.00 0.00 0.00 87 1002.4
20260903085227 46 131 0.0 0.0 0.00 0.00 0.00 87 1002.1
20260903084724 46 124 0.0 0.0 0.00 0.00 0.00 86 1002.3
20260903084220 46 122 0.0 0.0 0.00 0.00 0.00 84 1002.0
20260903083715 47 118 0.0 0.0 0.00 0.00 0.00 84 1002.4
20260903083209 47 116 0.0 0.0 0.00 0.00 0.00 83 1002.2
20260903082703 48 126 0.0 0.0 0.00 0.00 0.00 82 1002.7
20260903082159 48 144 2.0 2.0 0.00 0.00 0.00 83 1002.4
20260903081659 48 136 0.0 1.0 0.00 0.00 0.00 83 1002.4
20260903081155 48 141 2.0 2.0 0.00 0.00 0.00 82 1002.4
20260903080651 49 147 1.0 1.0 0.00 0.00 0.00 81 1002.3
20260903080149 49 145 1.0 1.0 0.00 0.00 0.00 80 1002.7
20260903075647 49 154 1.0 2.0 0.00 0.00 0.00 81 1002.2
20260903075143 49 148 1.0 1.0 0.00 0.00 0.00 79 1002.3
20260903074642 49 157 2.0 3.0 0.00 0.00 0.00 79 1002.4
20260903074137 49 158 3.0 3.0 0.00 0.00 0.00 79 1002.4
20260903073632 50 146 1.0 1.0 0.00 0.00 0.00 78 1002.4
20260903073128 49 156 2.0 2.0 0.00 0.00 0.00 80 1002.7
20260903072623 49 156 2.0 2.0 0.00 0.00 0.00 80 1002.5
20260903072119 49 160 5.0 5.0 0.00 0.00 0.00 80 1002.7
20260903071616 50 138 3.0 3.0 0.00 0.00 0.00 80 1002.5
20260903071111 51 164 6.0 7.0 0.00 0.00 0.00 77 1002.7
20260903070611 50 166 4.0 5.0 0.00 0.00 0.00 77 1002.7
20260903070107 51 155 3.0 3.0 0.00 0.00 0.00 79 1002.7
20260903065606 51 161 5.0 6.0 0.00 0.00 0.00 78 1002.4
20260903065100 51 163 3.0 3.0 0.00 0.00 0.00 77 1002.4
20260903064555 51 139 2.0 2.0 0.00 0.00 0.00 77 1002.5
20260903064050 51 126 2.0 2.0 0.00 0.00 0.00 78 1002.4
20260903063545 51 126 1.0 1.0 0.00 0.00 0.00 78 1002.3
20260903063041 50 96 4.0 5.0 0.00 0.00 0.00 80 1002.4
20260903062536 50 116 0.0 1.0 0.00 0.00 0.00 81 1002.4
20260903062032 50 100 2.0 2.0 0.00 0.00 0.00 80 1002.5
20260903061527 50 125 0.0 0.0 0.00 0.00 0.00 80 1002.4
20260903061027 50 149 1.0 2.0 0.00 0.00 0.00 80 1002.3
20260903060526 51 134 0.0 0.0 0.00 0.00 0.00 81 1002.3
20260903060021 51 302 3.0 5.0 0.00 0.06 0.06 80 1002.1
20260903055519 52 116 1.0 1.0 0.00 0.06 0.06 75 1002.2
20260903055018 53 139 1.0 1.0 0.00 0.06 0.06 74 1002.2
20260903054513 53 138 3.0 3.0 0.00 0.06 0.06 74 1002.2
20260903054009 52 161 6.0 8.0 0.00 0.06 0.06 77 1002.7
20260903053509 53 190 5.0 8.0 0.00 0.06 0.06 79 1002.3
20260903053005 53 165 6.0 7.0 0.00 0.06 0.06 77 1002.4
20260903052501 53 150 2.0 2.0 0.00 0.06 0.06 78 1002.3
20260903051956 53 144 1.0 1.0 0.00 0.06 0.06 79 1002.4
20260903051451 53 141 0.0 0.0 0.00 0.06 0.06 78 1002.3
20260903050947 52 147 0.0 1.0 0.00 0.06 0.06 80 1002.8
20260903050445 51 137 0.0 0.0 0.00 0.06 0.06 83 1003.3
20260903045940 51 139 0.0 0.0 0.00 0.06 0.06 83 1003.3
20260903045436 51 148 1.0 1.0 0.00 0.06 0.06 83 1003.3
20260903044932 51 204 2.0 2.0 0.00 0.06 0.06 84 1003.2
20260903044433 51 140 1.0 1.0 0.00 0.06 0.06 84 1003.2
20260903043929 51 149 1.0 1.0 0.00 0.06 0.06 84 1003.4
20260903043425 51 138 0.0 0.0 0.00 0.06 0.06 83 1003.2
20260903042923 52 142 1.0 1.0 0.00 0.06 0.06 82 1003.3
20260903042419 52 139 2.0 2.0 0.00 0.06 0.06 82 1003.2
20260903041914 52 153 3.0 3.0 0.00 0.06 0.06 82 1003.4
20260903041410 52 137 3.0 3.0 0.00 0.06 0.06 82 1003.5
20260903040906 51 151 1.0 2.0 0.00 0.06 0.06 82 1003.4
20260903040405 51 146 1.0 1.0 0.00 0.06 0.06 84 1003.1
20260903035901 51 146 1.0 1.0 0.00 0.06 0.06 84 1003.2
20260903035356 50 155 3.0 3.0 0.00 0.06 0.06 85 1003.1
20260903034851 51 156 2.0 2.0 0.00 0.06 0.06 86 1003.4
20260903034347 51 152 1.0 2.0 0.00 0.06 0.06 85 1003.2
20260903033842 51 155 2.0 2.0 0.00 0.06 0.06 84 1002.9
20260903033337 52 154 1.0 2.0 0.00 0.06 0.06 85 1003.4
20260903032836 52 160 2.0 2.0 0.00 0.06 0.06 85 1003.3
20260903032333 52 154 1.0 1.0 0.00 0.06 0.06 84 1003.2
20260903031828 53 156 1.0 1.0 0.00 0.06 0.06 84 1003.3
20260903031327 53 156 1.0 2.0 0.00 0.06 0.06 83 1003.1
20260903030823 54 159 1.0 1.0 0.00 0.06 0.06 82 1003.1
20260903030318 54 144 1.0 1.0 0.00 0.06 0.06 80 1003.3
20260903025814 54 151 1.0 1.0 0.00 0.06 0.06 81 1003.3
20260903025309 54 138 0.0 0.0 0.00 0.06 0.06 81 1003.2
20260903024804 54 166 1.0 1.0 0.00 0.06 0.06 80 1003.2
20260903024303 55 123 1.0 2.0 0.00 0.06 0.06 79 1002.9
20260903023759 55 322 5.0 5.0 0.00 0.06 0.06 78 1002.9
20260903023255 55 312 2.0 2.0 0.00 0.06 0.06 78 1003.0
20260903022755 56 314 5.0 7.0 0.00 0.06 0.06 77 1002.8
20260903022253 57 307 6.0 7.0 0.00 0.06 0.06 75 1002.5
20260903021753 57 312 6.0 8.0 0.00 0.06 0.06 73 1002.9
20260903021249 58 305 8.0 9.0 0.00 0.06 0.06 71 1002.7
20260903020748 58 308 6.0 8.0 0.00 0.06 0.06 71 1002.9
20260903020243 59 264 7.0 9.0 0.00 0.06 0.06 71 1003.0
20260903015738 59 266 6.0 7.0 0.00 0.06 0.06 71 1003.1
20260903015234 60 194 3.0 3.0 0.00 0.06 0.06 70 1003.2
20260903014729 61 248 7.0 7.0 0.00 0.06 0.06 67 1003.0
20260903014228 61 224 7.0 8.0 0.00 0.06 0.06 66 1002.8
20260903013724 62 318 12.0 14.0 0.00 0.06 0.06 63 1002.5
20260903013223 62 279 7.0 8.0 0.00 0.06 0.06 65 1002.5
20260903012721 61 137 0.0 1.0 0.00 0.06 0.06 65 1002.7
20260903012216 61 149 2.0 2.0 0.00 0.06 0.06 70 1002.9
20260903011716 61 146 3.0 3.0 0.00 0.06 0.06 73 1003.0
20260903011210 61 153 4.0 5.0 0.00 0.06 0.06 74 1003.0
20260903010706 61 178 5.0 6.0 0.00 0.06 0.06 71 1003.1
20260903010205 62 141 2.0 2.0 0.00 0.06 0.06 72 1003.1
20260903005704 62 146 1.0 1.0 0.00 0.06 0.06 72 1002.8
20260903005200 62 144 1.0 1.0 0.00 0.06 0.06 68 1002.9
20260903004655 62 134 0.0 1.0 0.00 0.06 0.06 71 1002.5
20260903004150 62 23 5.0 5.0 0.00 0.06 0.06 68 1002.3
20260903003646 62 20 3.0 3.0 0.00 0.06 0.06 70 1002.2
20260903003141 61 29 5.0 7.0 0.00 0.06 0.06 72 1001.6
20260903002636 62 124 3.0 5.0 0.00 0.06 0.06 72 1002.1
20260903002130 62 105 1.0 2.0 0.00 0.06 0.06 68 1002.3
20260903001625 61 6 6.0 7.0 0.00 0.06 0.06 67 1001.6
20260903001119 62 147 2.0 2.0 0.00 0.06 0.06 70 1001.7
20260903000615 62 126 0.0 0.0 0.00 0.06 0.06 67 1002.3
20260903000114 62 309 5.0 6.0 0.00 0.06 0.06 64 1002.5
20260902235613 62 29 5.0 6.0 0.05 0.06 0.06 64 1002.8
20260902235108 62 304 4.0 5.0 0.05 0.06 0.06 64 1002.7
20260902234602 62 308 7.0 8.0 0.00 0.05 0.05 63 1003.0
20260902234101 63 255 6.0 7.0 0.00 0.05 0.05 62 1003.2
20260902233556 63 275 7.0 7.0 0.00 0.05 0.05 60 1003.5
20260902233050 62 254 10.0 14.0 0.00 0.05 0.05 60 1003.4
20260902232549 62 281 15.0 17.0 0.00 0.05 0.05 63 1004.0
20260902232044 62 248 9.0 10.0 0.00 0.05 0.05 65 1003.5
20260902231538 61 230 20.0 26.0 0.00 0.05 0.05 63 1003.9
20260902231033 60 198 11.0 13.0 0.00 0.05 0.05 68 1003.5
20260902230532 60 241 20.0 26.0 0.00 0.05 0.05 71 1003.4
20260902230026 60 238 18.0 24.0 0.00 0.05 0.05 71 1002.9
20260902225522 60 220 15.0 18.0 0.07 0.05 0.05 69 1002.8
20260902225016 59 229 20.0 26.0 0.19 0.05 0.05 69 1002.5
20260902224515 60 251 14.0 16.0 0.12 0.04 0.04 75 1002.3
20260902224011 72 176 17.0 20.0 0.05 0.02 0.02 52 1001.2
20260902223507 77 128 14.0 16.0 0.00 0.01 0.01 36 998.7
20260902223006 77 111 21.0 24.0 0.07 0.01 0.01 32 998.1
20260902222505 77 111 21.0 24.0 0.07 0.01 0.01 32 998.1
20260902222004 76 134 16.0 18.0 0.07 0.01 0.01 34 998.2
20260902221504 78 146 12.0 16.0 0.00 0.00 0.00 37 998.6
20260902220959 80 179 7.0 8.0 0.00 0.00 0.00 27 998.7
20260902220459 80 258 7.0 9.0 0.00 0.00 0.00 26 998.8
20260902215954 82 255 17.0 23.0 0.00 0.00 0.00 25 998.6
20260902215450 83 202 5.0 8.0 0.00 0.00 0.00 30 998.4
20260902214946 83 200 6.0 7.0 0.00 0.00 0.00 31 998.6
20260902214444 83 139 6.0 8.0 0.00 0.00 0.00 31 998.6
20260902213938 83 168 9.0 10.0 0.00 0.00 0.00 30 998.4
20260902213435 85 168 8.0 11.0 0.00 0.00 0.00 29 998.4
20260902212933 85 168 8.0 10.0 0.00 0.00 0.00 28 998.6
20260902212430 85 179 6.0 8.0 0.00 0.00 0.00 28 998.5
20260902211926 84 101 6.0 7.0 0.00 0.00 0.00 29 998.7
20260902211421 85 168 4.0 6.0 0.00 0.00 0.00 30 998.6
20260902210917 85 197 3.0 5.0 0.00 0.00 0.00 29 998.8
20260902210416 84 186 4.0 6.0 0.00 0.00 0.00 29 999.0
20260902205914 84 182 2.0 3.0 0.00 0.00 0.00 30 998.9
20260902205409 84 161 2.0 3.0 0.00 0.00 0.00 30 999.2
20260902204905 84 118 4.0 5.0 0.00 0.00 0.00 31 999.2
20260902204359 84 176 3.0 6.0 0.00 0.00 0.00 30 999.7
20260902203855 83 111 5.0 6.0 0.00 0.00 0.00 31 999.9
20260902203350 82 128 7.0 8.0 0.00 0.00 0.00 31 999.7
20260902202844 83 124 4.0 5.0 0.00 0.00 0.00 32 999.6
20260902202340 83 194 3.0 5.0 0.00 0.00 0.00 32 1000.0
20260902201837 82 129 0.0 1.0 0.00 0.00 0.00 32 1000.1
20260902201336 80 184 2.0 2.0 0.00 0.00 0.00 34 1000.2
20260902200831 80 215 6.0 8.0 0.00 0.00 0.00 34 1000.2
20260902200327 80 175 5.0 6.0 0.00 0.00 0.00 34 1000.4
20260902195822 80 132 6.0 8.0 0.00 0.00 0.00 35 1000.4
20260902195321 79 160 4.0 5.0 0.00 0.00 0.00 35 1000.4
20260902194816 80 201 7.0 8.0 0.00 0.00 0.00 35 1000.4
20260902194311 80 155 7.0 9.0 0.00 0.00 0.00 34 1000.5
20260902193807 81 194 6.0 7.0 0.00 0.00 0.00 34 1000.7
20260902193302 80 182 6.0 6.0 0.00 0.00 0.00 34 1000.7
20260902192800 80 133 2.0 2.0 0.00 0.00 0.00 35 1000.7
20260902192300 79 155 4.0 5.0 0.00 0.00 0.00 36 1001.1
20260902191759 78 139 5.0 5.0 0.00 0.00 0.00 37 1000.9
20260902191254 78 186 6.0 9.0 0.00 0.00 0.00 37 1000.9
20260902190750 77 169 8.0 9.0 0.00 0.00 0.00 37 1000.8
20260902190249 78 171 6.0 7.0 0.00 0.00 0.00 38 1000.8
20260902185745 78 168 6.0 8.0 0.00 0.00 0.00 38 1001.0
20260902185240 78 181 9.0 10.0 0.00 0.00 0.00 38 1001.1
20260902184736 78 158 3.0 3.0 0.00 0.00 0.00 38 1001.3
20260902184231 78 190 7.0 7.0 0.00 0.00 0.00 38 1001.3
20260902183727 78 162 4.0 6.0 0.00 0.00 0.00 37 1001.2
20260902183223 78 175 8.0 10.0 0.00 0.00 0.00 38 1001.1
20260902182719 78 169 5.0 6.0 0.00 0.00 0.00 39 1001.3
20260902182215 78 164 5.0 8.0 0.00 0.00 0.00 39 1001.4
20260902181712 78 172 4.0 5.0 0.00 0.00 0.00 39 1001.8
20260902181211 78 264 5.0 6.0 0.00 0.00 0.00 39 1001.9
20260902180706 76 184 3.0 3.0 0.00 0.00 0.00 42 1001.8
20260902180201 75 170 3.0 3.0 0.00 0.00 0.00 43 1001.6
20260902175702 75 183 5.0 7.0 0.00 0.00 0.00 42 1002.1
20260902175158 75 176 4.0 5.0 0.00 0.00 0.00 43 1002.1
20260902174654 75 178 6.0 8.0 0.00 0.00 0.00 44 1002.0
20260902174149 75 178 4.0 5.0 0.00 0.00 0.00 43 1002.1
20260902173644 76 196 3.0 5.0 0.00 0.00 0.00 43 1001.8
20260902173139 76 174 8.0 11.0 0.00 0.00 0.00 42 1002.1
20260902172633 76 215 7.0 9.0 0.00 0.00 0.00 43 1002.1
20260902172132 75 160 6.0 7.0 0.00 0.00 0.00 44 1002.4
20260902171628 74 165 9.0 11.0 0.00 0.00 0.00 44 1002.3
20260902171124 74 178 5.0 7.0 0.00 0.00 0.00 46 1002.4
20260902170620 74 157 8.0 10.0 0.00 0.00 0.00 46 1002.1
20260902170115 73 152 3.0 3.0 0.00 0.00 0.00 46 1002.2
20260902165615 73 161 9.0 11.0 0.00 0.00 0.00 47 1002.1
20260902165109 73 135 8.0 10.0 0.00 0.00 0.00 46 1002.4
20260902164604 73 174 3.0 5.0 0.00 0.00 0.00 48 1002.2
20260902164103 73 187 5.0 6.0 0.00 0.00 0.00 47 1002.2
20260902163559 71 168 3.0 3.0 0.00 0.00 0.00 49 1002.4
20260902163057 71 203 3.0 5.0 0.00 0.00 0.00 50 1002.1
20260902162551 71 165 4.0 5.0 0.00 0.00 0.00 50 1002.2
20260902162046 71 171 3.0 3.0 0.00 0.00 0.00 49 1002.5
20260902161546 72 153 3.0 3.0 0.00 0.00 0.00 50 1002.4
20260902161043 72 177 4.0 5.0 0.00 0.00 0.00 50 1002.3
20260902160538 71 163 4.0 5.0 0.00 0.00 0.00 52 1002.2
20260902160033 71 157 2.0 2.0 0.00 0.00 0.00 52 1002.2
20260902155526 70 154 2.0 3.0 0.00 0.00 0.00 52 1002.5
20260902155025 69 157 3.0 3.0 0.00 0.00 0.00 52 1002.4
20260902154521 69 138 1.0 1.0 0.00 0.00 0.00 55 1002.7
20260902154016 69 224 3.0 3.0 0.00 0.00 0.00 54 1002.4
20260902153514 71 235 5.0 6.0 0.00 0.00 0.00 52 1002.7
20260902153010 70 122 0.0 0.0 0.00 0.00 0.00 53 1002.9
20260902152506 68 114 2.0 2.0 0.00 0.00 0.00 56 1002.8
20260902152001 66 130 0.0 0.0 0.00 0.00 0.00 58 1002.9
20260902151457 66 121 1.0 2.0 0.00 0.00 0.00 59 1003.0
20260902150956 66 132 1.0 1.0 0.00 0.00 0.00 59 1003.2
20260902150452 65 136 2.0 2.0 0.00 0.00 0.00 61 1003.2
20260902145952 64 138 0.0 1.0 0.00 0.00 0.00 60 1003.1
20260902145447 63 135 0.0 1.0 0.00 0.00 0.00 62 1003.1
20260902144942 61 161 1.0 2.0 0.00 0.00 0.00 66 1003.3
20260902144438 60 151 3.0 3.0 0.00 0.00 0.00 72 1003.3
20260902143938 59 148 2.0 2.0 0.00 0.00 0.00 73 1003.3
20260902143433 59 139 1.0 1.0 0.00 0.00 0.00 73 1003.2
20260902142928 58 117 1.0 2.0 0.00 0.00 0.00 74 1003.4
20260902142425 58 124 0.0 0.0 0.00 0.00 0.00 72 1003.6
20260902141920 58 125 0.0 0.0 0.00 0.00 0.00 73 1003.4
20260902141415 57 125 0.0 0.0 0.00 0.00 0.00 71 1003.4
20260902140914 57 125 0.0 0.0 0.00 0.00 0.00 74 1003.5
20260902140410 57 125 0.0 0.0 0.00 0.00 0.00 73 1003.6
20260902135909 57 125 0.0 0.0 0.00 0.00 0.00 73 1003.6
20260902135406 56 125 0.0 0.0 0.00 0.00 0.00 73 1003.9
20260902134904 57 125 0.0 0.0 0.00 0.00 0.00 74 1003.4
20260902134400 57 125 0.0 0.0 0.00 0.00 0.00 73 1003.6
20260902133855 56 123 0.0 0.0 0.00 0.00 0.00 73 1003.6
20260902133355 56 125 0.0 0.0 0.00 0.00 0.00 72 1003.5
20260902132850 56 125 0.0 0.0 0.00 0.00 0.00 72 1003.5
20260902132345 56 125 0.0 0.0 0.00 0.00 0.00 72 1003.4
20260902131840 56 124 0.0 0.0 0.00 0.00 0.00 74 1003.5
20260902131337 55 124 0.0 0.0 0.00 0.00 0.00 73 1003.3
20260902130836 55 123 0.0 0.0 0.00 0.00 0.00 76 1003.3
20260902130332 54 127 0.0 0.0 0.00 0.00 0.00 78 1003.1
20260902125827 54 118 0.0 1.0 0.00 0.00 0.00 78 1003.3
20260902125323 54 121 0.0 0.0 0.00 0.00 0.00 76 1003.3
20260902124819 54 117 1.0 1.0 0.00 0.00 0.00 77 1003.4
20260902124315 53 138 1.0 1.0 0.00 0.00 0.00 76 1003.5
20260902123809 53 124 0.0 0.0 0.00 0.00 0.00 76 1003.4
20260902123306 54 139 0.0 0.0 0.00 0.00 0.00 77 1003.4
20260902122804 54 151 1.0 1.0 0.00 0.00 0.00 77 1003.5
20260902122300 53 139 0.0 0.0 0.00 0.00 0.00 77 1003.3